User: anonymous   Login
Location: Unspecified
(0.0000°N, 0.0000°E)
Time: 01:14:56
(UTC+00:00)
Language:

NANOSAT C BR1 - Orbit

View from above orbital plane
View from above orbital plane
View from above satellite
View from above satellite

Ground track
Ground track

The orbit data is extracted from the following two-line orbital elements,

1 40024U 14033Q   18015.80877058  .00000300  00000-0  37529-4 0  9992
2 40024  97.9125 292.7855 0011602 328.7308  31.3218 14.89453482194194
Epoch (UTC): 15 January 2018 19:24:37
Eccentricity: 0.0011602
inclination: 97.9125°
perigee height: 591 km
apogee height: 608 km
right ascension of ascending node: 292.7855°
argument of perigee: 328.7308°
revolutions per day: 14.89453482
mean anomaly at epoch: 31.3218°
orbit number at epoch: 19419

The dashed part of the orbit path shows where the satellite is in the earth's shadow,  

DLR